Weather History for Garden City, KS

Change the Weather History Date:

Wednesday, December 12, 2012

  Actual Average Record
Temperature  
Mean Temperature 35 °F 32 °F  
Max Temperature 53 °F 45 °F 71 °F (1977)
Min Temperature 17 °F 19 °F -15 °F (1961)
Degree Days  
Heating Degree Days 30 33  
Month to date heating degree days 319 383  
Since 1 July heating degree days 1299 1472  
Cooling Degree Days 0 0  
Month to date cooling degree days 0 0  
Year to date cooling degree days 1643 1298  
Moisture  
Dew Point 11 °F    
Average Humidity 43    
Maximum Humidity 67    
Minimum Humidity 19    
Precipitation  
Precipitation 0.00 in 0.01 in 0.09 in (2003)
Month to date precipitation T 0.21  
Year to date precipitation 12.67 19.16  
Sea Level Pressure  
Sea Level Pressure 29.97 in    
Wind  
Wind Speed 12 mph (South)    
Max Wind Speed 22 mph    
Max Gust Speed 25 mph    
Visibility 10 miles    
Events      
T = Trace of Precipitation, MM = Missing Value Source: NWS Daily Summary

Daily Weather History Graph

Daily Weather History Graph

Search for Another Location

Airport:

Trip Planner

Search our weather history database for the weather conditions in past years. The results will help you decide how hot, cold, wet, or windy it might be!

Date:

Astronomy

Dec. 12, 2012 Rise Set
Actual Time 7:49 AM CST 5:24 PM CST
Civil Twilight 7:20 AM CST 5:53 PM CST
Nautical Twilight 6:47 AM CST 6:26 PM CST
Astronomical Twilight 6:15 AM CST 6:58 PM CST
Moon 6:56 AM CST (12/12) 5:02 PM CST (12/12)
Length of Visible Light 10h 33m
Length of Day
9h 34m
Waning Crescent, 1% of the Moon is Illuminated
Dec 12
Waning Crescent
Dec 13
New
Dec 19
First Quarter
Dec 28
Full
Jan 4
Last Quarter

Hourly Weather History & Observations

Time (CST) Temp. Windchill Dew Point Humidity Pressure Visibility Wind Dir Wind Speed Gust Speed Precip Events Conditions
12:54 AM 21.9 °F 12.5 °F 9.0 °F 58% 30.03 in 10.0 mi South 8.1 mph - N/A   Clear
1:54 AM 21.9 °F 12.5 °F 8.1 °F 55% 30.02 in 10.0 mi SSW 8.1 mph - N/A   Clear
2:54 AM 23.0 °F 12.4 °F 8.1 °F 53% 30.00 in 10.0 mi SSW 10.4 mph - N/A   Clear
3:54 AM 21.0 °F 10.6 °F 8.1 °F 57% 30.00 in 10.0 mi South 9.2 mph - N/A   Clear
4:54 AM 19.0 °F 10.0 °F 7.0 °F 59% 30.00 in 10.0 mi SSE 6.9 mph - N/A   Clear
5:54 AM 18.0 °F 8.7 °F 8.1 °F 65% 30.02 in 10.0 mi South 6.9 mph - N/A   Clear
6:54 AM 19.4 °F 7.9 °F 8.6 °F 63% 29.94 in 10.0 mi South 10.4 mph - N/A   Clear
7:54 AM 19.0 °F 8.2 °F 10.0 °F 68% 30.02 in 10.0 mi South 9.2 mph - N/A   Clear
8:54 AM 24.1 °F 11.5 °F 10.9 °F 57% 30.01 in 10.0 mi South 15.0 mph - N/A   Clear
9:54 AM 32.0 °F 20.8 °F 12.0 °F 44% 30.01 in 10.0 mi SSW 17.3 mph - N/A   Clear
10:54 AM 37.9 °F 29.2 °F 12.0 °F 35% 30.00 in 10.0 mi South 15.0 mph - N/A   Clear
11:54 AM 44.1 °F 36.8 °F 12.9 °F 28% 29.97 in 10.0 mi South 16.1 mph - N/A   Clear
12:54 PM 48.0 °F - 12.9 °F 24% 29.95 in 10.0 mi SSW 16.1 mph - N/A   Clear
1:54 PM 51.1 °F - 12.9 °F 22% 29.92 in 10.0 mi South 17.3 mph - N/A   Clear
2:54 PM 53.1 °F - 12.0 °F 20% 29.91 in 10.0 mi South 18.4 mph 24.2 mph N/A   Clear
3:54 PM 53.1 °F - 12.0 °F 20% 29.91 in 10.0 mi South 17.3 mph - N/A   Clear
4:54 PM 48.9 °F - 12.0 °F 23% 29.92 in 10.0 mi South 12.7 mph - N/A   Clear
5:54 PM 43.0 °F 37.7 °F 12.9 °F 30% 29.94 in 10.0 mi South 9.2 mph - N/A   Clear
6:54 PM 39.9 °F 34.5 °F 12.9 °F 33% 29.95 in 10.0 mi South 8.1 mph - N/A   Clear
7:54 PM 39.0 °F 33.4 °F 12.9 °F 34% 29.97 in 10.0 mi SSE 8.1 mph - N/A   Clear
8:54 PM 37.9 °F 30.9 °F 12.0 °F 35% 29.96 in 10.0 mi SSE 10.4 mph - N/A   Clear
9:54 PM 39.0 °F 31.8 °F 12.9 °F 34% 29.93 in 10.0 mi South 11.5 mph - N/A   Clear
10:54 PM 37.9 °F 31.5 °F 12.9 °F 36% 29.93 in 10.0 mi South 9.2 mph - N/A   Clear
11:54 PM 37.9 °F 30.0 °F 12.9 °F 36% 29.91 in 10.0 mi South 12.7 mph - N/A   Clear